Probability
0 0 0 0 0 0 1 3 3 2 2 3 5 7 11 14 18 22 22 21 20 19 17 15 13 12 13 12 12 13 14 13 11 9 10 11 10 10 12 13 11 10 10 11
0 0 0 0 0 0 1 2 3 2 2 4 7 9 11 13 15 18 20 20 19 17 15 14 14 15 16 16 16 16 16 15 12 10 11 11 11 11 12 13 12 11 12 13
0 0 0 0 0 1 1 2 3 3 3 6 9 12 13 12 13 15 17 18 17 14 12 13 15 16 16 17 20 20 18 16 14 12 12 11 10 11 12 12 12 12 14 15
0 1 1 1 1 2 3 3 3 4 6 9 12 15 16 15 14 15 15 15 15 12 10 11 13 14 13 15 18 19 17 16 13 12 12 11 10 9 10 11 12 12 13 14
1 1 2 2 2 3 4 5 6 6 9 12 14 17 17 15 14 16 15 14 14 13 10 11 12 13 14 13 14 15 14 14 12 10 10 11 10 9 9 10 11 13 14 14
0 1 1 1 2 2 4 6 8 10 12 14 14 14 13 12 14 16 17 15 15 14 14 14 14 16 16 14 11 11 13 13 12 11 10 10 10 11 11 11 11 12 14 13
0 0 0 2 2 1 2 5 8 12 13 14 14 13 12 14 18 20 19 18 17 18 19 20 19 18 18 15 11 10 11 12 12 12 12 13 13 14 14 13 11 11 10 9
0 0 0 2 3 3 4 7 9 11 12 13 15 16 18 21 23 23 20 19 20 22 23 23 22 20 17 14 11 11 11 10 10 11 13 14 14 14 13 12 9 8 7 6
2 2 3 4 4 6 10 12 11 11 11 14 18 21 23 24 24 23 19 17 20 23 23 23 22 19 16 14 13 13 13 10 8 9 11 12 12 11 10 8 7 6 5 5
4 5 6 8 8 10 13 15 14 13 14 18 21 24 25 23 21 19 17 16 19 21 21 20 18 16 14 13 14 16 14 10 7 7 8 9 8 8 7 6 5 5 4 3
3 4 6 8 11 13 15 18 18 19 22 23 24 24 24 21 19 17 16 17 17 18 18 17 16 16 14 12 12 13 12 9 8 7 7 7 6 6 5 5 4 3 2 1
1 1 3 6 10 14 17 20 21 23 26 25 23 23 23 22 20 17 16 16 15 15 14 15 15 15 12 10 9 9 9 9 9 9 9 7 6 5 4 3 1 1 1 0
2 2 2 4 7 12 16 20 21 22 23 22 22 23 25 24 21 18 15 14 14 14 14 14 14 12 9 8 7 6 7 8 10 10 10 8 7 5 4 2 1 0 0 0
2 3 3 4 6 10 15 18 19 19 19 21 24 25 25 23 21 18 15 14 14 14 13 11 10 9 7 6 5 4 5 7 10 11 10 8 7 6 5 4 2 1 1 0
2 2 3 4 7 11 15 17 17 15 16 21 24 24 21 20 19 18 15 12 11 10 8 7 6 5 5 5 4 4 4 5 7 9 9 7 7 6 6 5 3 3 2 1
2 3 3 5 7 11 14 16 14 11 13 17 19 19 17 17 16 15 13 9 6 4 3 3 3 3 4 4 5 4 3 2 4 6 7 6 6 6 5 4 3 3 3 3
2 2 3 4 6 9 11 12 12 11 11 11 11 12 14 15 14 12 9 5 2 1 1 1 1 3 4 4 5 5 4 2 2 3 4 4 4 4 4 3 2 2 2 2
1 1 1 2 4 6 8 9 10 10 8 6 6 8 11 12 12 10 7 4 1 0 0 0 1 3 4 4 5 6 5 3 1 1 3 3 3 3 3 2 1 1 1 1
0 1 2 2 3 5 6 7 7 6 4 4 6 8 9 8 8 7 6 4 3 1 0 0 1 2 2 2 4 6 5 3 2 2 3 4 3 4 3 1 0 0 0 0
1 2 3 3 3 4 4 4 4 3 4 5 7 8 7 6 5 4 4 3 3 2 1 1 1 1 0 1 4 5 4 3 3 3 5 5 4 4 3 1 0 0 0 0
3 3 3 3 3 3 3 3 4 5 6 7 7 7 6 4 3 3 2 2 2 2 2 2 2 1 1 3 5 4 3 3 3 4 6 6 5 3 2 1 0 0 0 0
3 3 3 3 3 4 4 5 6 6 7 8 7 7 6 4 3 2 1 0 1 1 2 3 3 2 2 4 5 3 2 3 3 4 6 6 4 3 1 1 0 0 0 0
3 3 3 3 4 6 7 8 7 6 6 6 6 7 6 4 2 1 0 0 0 0 1 2 3 2 2 3 5 3 2 2 3 4 6 6 5 3 1 0 0 0 0 0
3 3 4 4 6 7 8 8 6 5 4 4 4 5 4 2 1 0 0 0 0 0 0 1 2 1 1 3 4 3 1 2 3 4 5 5 4 3 1 0 0 0 0 0
4 5 6 6 6 7 7 5 4 4 3 1 1 1 1 1 0 0 0 0 0 0 0 0 0 0 1 2 2 1 0 1 2 3 4 4 3 2 1 0 0 0 0 0
6 7 7 6 6 6 6 4 3 2 1 0 0 0 0 0 0 0 0 0 0 0 0 0 0 0 0 1 1 0 0 0 1 3 3 3 3 2 1 0 0 0 0 0
7 7 7 5 4 5 6 5 2 1 0 0 0 0 0 0 0 0 0 0 0 0 0 0 0 0 0 0 0 0 0 0 1 2 3 3 3 2 1 0 0 0 0 0
Wind_Speed
5 5 2 2 3 3 4 7 7 7 7 8 7 7 6 6 7 7 6 6 7 8 7 7 7 6 6 5 5 6 6 6 6 5 4 4 4 4 4 4 5 4 3 3
1 1 1 1 2 3 3 3 4 4 5 6 4 4 4 5 7 7 7 7 7 7 7 7 7 6 6 5 5 6 6 6 5 5 4 5 4 4 4 3 3 3 4 4
2 2 2 3 4 3 2 3 6 6 7 5 6 7 7 6 6 6 6 5 6 7 7 6 6 6 6 5 5 6 6 5 5 6 5 5 5 4 4 4 3 3 4 4
3 2 3 8 4 3 3 0 1 3 5 8 8 8 5 5 6 6 5 4 5 6 6 6 5 5 5 5 5 5 5 5 5 6 5 5 5 5 4 4 4 3 3 4
4 3 3 6 3 2 3 0 1 4 6 6 6 5 1 2 5 6 6 5 4 4 5 5 5 5 5 5 4 4 4 4 5 5 5 5 5 5 4 4 4 4 3 4
4 4 5 7 5 2 5 0 3 3 6 6 6 4 3 3 4 5 4 4 3 3 4 5 5 6 6 5 4 4 4 4 4 5 5 6 6 5 4 3 4 3 2 3
4 3 5 5 4 2 4 6 3 4 5 5 4 6 5 4 4 4 4 4 4 4 4 4 4 6 6 5 5 5 4 3 3 4 4 5 4 3 3 3 3 2 2 2
3 3 6 5 2 3 5 3 3 4 5 6 4 4 4 5 6 5 5 4 5 4 3 2 3 5 5 5 4 4 3 3 3 3 3 3 3 3 3 3 3 2 2 1
5 6 5 1 2 2 4 4 2 3 4 6 5 5 5 5 6 5 5 4 4 5 3 1 1 4 5 4 4 4 4 3 3 3 2 2 3 3 2 2 2 2 2 2
1 1 0 2 3 4 4 4 3 3 6 6 5 5 6 6 5 4 3 3 3 4 3 1 0 2 2 2 3 4 3 3 3 3 2 1 2 2 2 2 2 2 3 3
1 1 3 3 3 4 5 6 6 5 4 5 6 6 5 5 5 4 3 2 3 3 2 2 1 1 1 2 3 3 3 3 2 2 3 2 2 2 3 3 4 4 4 4
3 4 2 2 1 3 5 4 5 5 4 2 4 5 5 4 4 4 4 3 3 3 2 2 2 1 1 2 3 3 3 3 3 3 2 2 2 0 1 1 2 4 5 4
2 1 1 0 2 3 3 3 4 4 4 3 3 5 6 5 3 3 3 3 4 3 3 2 2 1 1 2 2 3 3 3 3 3 3 3 3 3 1 1 2 1 2 4
1 2 2 2 1 2 2 2 4 4 3 4 4 5 5 5 4 4 3 3 3 3 2 2 2 1 1 2 2 2 2 3 3 3 4 3 3 3 3 3 1 1 2 3
2 0 2 1 2 3 2 3 4 3 3 4 3 4 4 5 4 3 2 2 3 3 2 1 1 1 1 1 2 2 2 2 2 3 3 3 3 3 3 3 2 2 1 1
2 2 2 3 2 2 2 3 3 2 2 3 3 2 3 4 3 2 2 3 3 2 2 2 2 2 1 1 1 1 2 3 3 2 2 2 3 3 3 3 2 2 3 2
2 1 1 1 1 1 1 2 3 3 3 2 2 2 3 3 3 2 1 1 2 2 2 2 2 2 2 1 2 2 2 2 3 2 2 3 3 3 3 3 3 3 3 4
2 2 2 2 2 1 1 2 2 2 3 3 3 3 3 3 2 2 0 1 1 1 0 1 1 1 1 1 2 1 2 2 2 2 2 2 3 3 3 3 3 3 2 2
1 1 1 1 2 2 2 2 1 1 2 3 3 3 2 2 2 2 1 1 1 0 2 2 2 1 2 2 2 1 1 1 2 2 2 3 3 2 2 2 2 2 2 2
1 1 2 2 2 3 2 2 2 2 2 3 3 2 2 1 1 1 1 1 2 3 3 2 1 1 2 2 2 1 2 2 2 2 2 2 2 2 2 2 2 2 2 2
2 1 2 1 1 2 2 2 3 2 2 2 3 3 2 1 1 2 2 1 3 2 2 2 2 2 2 2 1 1 1 2 2 2 2 2 2 2 2 2 2 2 2 2
1 2 1 1 1 1 1 2 2 2 2 2 2 3 2 1 0 0 1 2 3 2 1 1 1 2 2 1 1 1 1 2 2 1 2 2 2 2 2 2 2 2 2 2
0 1 1 1 2 2 1 1 2 2 2 2 2 2 2 2 2 2 2 2 1 2 1 2 2 2 2 1 1 1 1 1 1 1 1 1 2 2 2 2 1 2 2 2
0 0 0 1 2 2 1 1 1 2 2 2 2 2 2 1 1 2 2 3 3 2 2 2 2 2 1 0 1 1 1 1 1 1 1 1 1 1 1 1 1 1 1 1
0 0 1 1 2 1 1 1 1 1 1 1 1 1 1 1 1 1 1 1 2 1 1 1 2 2 1 1 1 1 1 1 1 2 2 1 1 1 1 1 1 1 1 1
0 1 1 1 1 1 1 1 1 1 1 1 1 1 1 1 1 0 0 1 1 0 0 0 1 1 1 1 1 1 1 1 1 2 1 1 1 1 1 1 1 1 1 1
1 1 1 1 1 0 1 1 2 2 2 2 1 0 0 1 1 1 1 1 1 1 0 0 0 0 0 1 1 1 1 1 2 2 2 1 1 1 1 1 0 0 1 1
Wind_Direction
210 211 182 205 226 193 168 177 179 209 192 216 205 185 170 161 153 152 162 169 170 171 176 171 165 166 169 172 172 166 163 171 188 190 185 181 184 189 190 191 194 194 195 202
288 258 113 272 240 216 210 180 168 158 206 217 176 145 146 159 161 164 171 176 176 170 165 167 167 165 164 168 171 163 168 181 183 178 180 182 188 190 189 196 201 195 201 204
233 278 48 279 238 202 217 211 169 189 213 175 143 150 164 169 170 169 165 169 167 167 170 171 169 165 167 170 162 161 168 173 178 179 181 182 186 187 194 202 205 210 213 208
148 84 213 245 246 170 156 170 183 170 166 161 161 161 161 157 154 151 149 162 178 175 173 172 167 163 158 150 154 164 172 180 184 183 186 183 182 190 201 200 200 209 218 216
124 150 255 287 289 181 153 320 337 142 147 157 144 101 54 183 153 149 146 161 182 173 163 160 163 161 148 148 151 161 180 191 195 189 186 184 189 199 202 199 202 208 209 207
130 147 214 247 270 221 113 316 282 155 155 162 128 125 225 197 151 134 130 134 143 144 134 143 159 150 144 157 162 182 196 202 199 188 187 192 197 197 195 192 202 204 211 203
155 181 244 260 282 82 138 219 229 148 152 151 164 184 194 159 134 125 119 125 129 129 135 153 160 152 156 164 185 194 186 187 188 192 196 194 189 184 181 183 183 186 186 198
148 168 243 285 30 139 197 197 152 123 129 134 139 137 136 127 122 113 106 101 114 122 130 142 147 150 157 180 191 175 165 172 184 185 193 185 177 180 180 178 178 184 188 207
181 205 232 267 132 155 138 121 120 120 118 120 123 136 135 127 124 120 121 120 117 121 113 116 157 160 174 194 176 163 163 173 176 178 181 173 175 182 183 182 183 189 187 204
97 292 293 62 76 69 84 97 90 107 118 120 133 137 129 126 125 124 119 115 110 114 117 113 166 155 167 173 165 159 170 179 179 176 180 172 167 177 178 186 188 190 195 205
99 296 29 29 60 79 72 74 73 75 97 127 132 131 135 136 139 139 134 127 122 130 148 173 149 121 131 136 134 155 168 177 174 172 171 172 172 189 194 206 200 195 203 198
217 236 174 252 324 79 85 85 90 94 87 96 125 133 131 136 144 141 142 134 132 140 156 178 156 144 148 145 143 144 162 179 183 182 181 176 168 145 356 227 221 210 204 193
207 232 151 202 42 52 78 91 98 106 124 130 121 126 127 130 136 136 136 140 156 163 169 171 160 170 194 164 144 150 174 190 193 189 183 181 182 179 203 337 0 309 220 205
35 70 56 37 53 32 43 83 92 88 104 115 120 120 120 118 122 126 139 161 160 156 149 148 150 198 221 174 149 156 176 196 199 197 192 190 192 192 187 189 215 288 289 236
311 136 182 175 75 50 46 85 88 80 77 80 98 117 125 129 138 148 149 141 130 124 118 121 169 235 233 173 167 180 191 203 205 198 193 190 189 186 189 192 194 210 257 289
347 32 77 82 80 66 71 96 108 103 88 86 85 107 126 136 139 135 131 128 129 146 161 166 226 243 214 179 187 208 215 210 203 197 190 186 187 186 189 194 201 207 216 221
64 9 28 50 55 42 99 136 146 146 130 122 124 117 108 106 99 92 97 128 150 169 180 177 214 228 195 194 196 209 223 222 212 207 198 191 188 188 189 191 198 210 222 210
184 214 207 191 182 166 127 127 135 141 154 153 131 120 116 122 133 137 147 106 95 65 328 244 229 227 225 219 208 217 221 214 205 212 208 197 192 193 189 191 200 207 222 211
120 111 148 149 129 113 110 119 140 148 148 139 136 145 152 156 157 159 146 111 101 310 286 273 242 231 253 257 248 226 222 215 207 215 204 194 191 188 184 186 195 199 192 183
128 89 94 100 106 109 117 124 129 141 145 134 132 127 131 155 147 147 139 159 211 226 242 254 238 234 247 258 262 235 212 208 199 197 185 177 180 184 182 183 187 192 193 193
130 117 112 122 110 109 141 148 147 150 148 136 134 141 149 165 161 155 145 204 272 255 245 254 247 253 253 262 248 223 206 199 197 196 184 182 178 177 176 178 186 190 190 194
116 132 150 162 126 126 164 150 139 126 115 116 124 129 125 133 146 93 217 225 246 250 242 244 243 254 265 261 201 196 196 183 180 185 183 179 177 182 186 188 195 202 193 191
109 130 161 175 161 163 143 132 138 134 141 155 154 161 176 204 203 192 255 262 234 240 243 244 249 255 266 211 167 176 178 171 169 178 191 189 183 180 184 194 198 202 196 189
346 156 214 185 128 113 117 201 169 167 168 169 179 179 178 186 274 254 224 227 223 232 241 245 247 259 256 192 177 189 188 189 184 179 171 181 180 172 175 176 183 205 195 180
206 75 87 96 107 137 171 164 102 84 93 109 99 105 147 166 186 235 243 241 246 247 253 230 221 247 237 188 177 195 190 182 171 162 166 168 168 161 161 161 169 172 168 182
187 184 196 187 176 167 155 154 155 136 117 93 27 20 31 46 68 57 46 28 25 5 252 243 228 220 211 178 164 168 161 149 136 133 142 143 140 143 152 158 157 154 163 183
44 64 64 46 24 95 139 143 148 156 151 142 146 169 97 71 46 48 61 56 38 18 8 16 73 165 166 136 109 95 96 103 106 106 112 115 119 129 138 141 152 167 181 177